Regional Weather Roundup
Issued by NWS Albany, NY

Home | Current Version | Previous Version | Graphics & Text | Print | Product List | Glossary On
Versions: 1 2 3 4 5 6 7 8 9 10 11 12 13 14 15 16 17 18 19 20 21 22 23 24 25 26 27 28 29 30 31 32 33 34 35 36 37 38 39 40 41 42 43 44 45 46 47 48 49 50
000
ASUS41 KALY 040310
RWRALY

NEW YORK STATE HOURLY WEATHER ROUNDUP
NATIONAL WEATHER SERVICE ALBANY NY
1100 PM EDT MON AUG 03 2015

NOTE: "FAIR" INDICATES FEW OR NO CLOUDS BELOW 12,000 FEET WITH NO
SIGNIFICANT WEATHER AND/OR NO OBSTRUCTIONS TO VISIBILITY.

NYZ032-033-038>043-046>054-057>066-NYZ062>081-040400-
EAST


CITY           SKY/WX    TMP DP  RH WIND       PRES   REMARKS
ALBANY         TSTM      70  66  87 W8        29.84R FOG
GLENS FALLS    MOCLDY    69  64  84 S7        29.78R
POUGHKEEPSIE   CLEAR     73  63  70 CALM      29.79R
NEWBURGH       CLEAR     77  63  61 W7        29.83R
MONTGOMERY     CLEAR     73  64  73 SW8       29.81S
WHITE PLAINS   CLEAR     75  66  73 S3        29.82S
ISLIP          PTCLDY    78  73  84 S12       29.81S
NEW YORK CITY  PTCLDY    85  59  41 SW9       29.81R
CENTRAL PARK   CLEAR     82  59  45 MISG      29.84S
$$

NYZ005>009-017-018-044>046-055-056-040400-
CENTRAL


CITY           SKY/WX    TMP DP  RH WIND       PRES   REMARKS
FULTON         PTCLDY    64  61  90 CALM      29.78S
SYRACUSE       PTCLDY    69  65  86 S3        29.79R
ROME           PTCLDY    64  62  93 SE3       29.81R
ELMIRA         MOCLDY    65  62  90 W3        29.82R
BINGHAMTON     TSTM      65  58  78 SW3       29.85R
MONTICELLO     MOCLDY    68  66  94 S3        29.87R
$$

NYZ026>034-041>043-040400-
NORTH


CITY           SKY/WX    TMP DP  RH WIND       PRES   REMARKS
WATERTOWN      PTCLDY    65  60  84 S3        29.76S
FORT DRUM      NOT AVBL
MASSENA        CLEAR     63  58  83 S7        29.74S
SARANAC LAKE   PTCLDY    60  59  96 CALM      29.80R
PLATTSBURGH    PTCLDY    65  61  87 CALM      29.75R
$$

NYZ001>004-010>016-019>021-040400-
WEST


CITY           SKY/WX    TMP DP  RH WIND       PRES   REMARKS
NIAGARA FALLS  MOCLDY    67  60  78 W7        29.80R
BUFFALO        PTCLDY    70  61  73 W7        29.80S
DUNKIRK        PTCLDY    64  63  96 S5        29.83R
JAMESTOWN      MOCLDY    63  57  82 CALM      29.87R
WELLSVILLE     CLEAR     66  56  70 SW5       29.89S
ROCHESTER      PTCLDY    68  60  75 SW6       29.80S
PENN YAN       CLEAR     66  64  93 S7        29.83R
$$

             KEY
       WCI = WIND CHILL INDEX
       VSB = VISIBILITY
       HX  = HEAT INDEX
$$



USA.gov is the U.S. government's official web portal to all federal, state and local government web resources and services.